Regional Weather Roundup
Issued by NWS Green Bay, WI

Home | Current Version | Previous Version | Graphics & Text | Print | Product List | Glossary Off
Versions: 1 2 3 4 5 6 7 8 9 10 11 12 13 14 15 16 17 18 19 20 21 22 23 24 25 26 27 28 29 30 31 32 33 34 35 36 37 38 39 40 41 42 43 44 45 46 47 48 49 50

000
ASUS43 KGRB 250300
RWRGRB

NORTH-CENTRAL AND NORTHEAST WISCONSIN REGIONAL WEATHER ROUNDUP
NATIONAL WEATHER SERVICE GREEN BAY WI
1000 PM CDT FRI MAR 24 2017

WIZ005-009-010>012-018-019-250400-
NORTH CENTRAL WISCONSIN

CITY           SKY/WX    TMP DP  RH WIND       PRES   REMARKS
IRONWOOD       CLOUDY    34  31  88 NE5       30.23R
MANITOWISH WTR NOT AVBL
ARBOR VITAE    NOT AVBL
EAGLE RIVER    NOT AVBL
LAND O LAKES   NOT AVBL
RHINELANDER    CLOUDY    35  33  92 VRB7      30.18R
PHILLIPS       NOT AVBL
ANTIGO         NOT AVBL
TOMAHAWK       NOT AVBL
MERRILL        NOT AVBL
$$

WIZ013-073-250400-
NORTHEAST WISCONSIN

CITY           SKY/WX    TMP DP  RH WIND       PRES   REMARKS
IRON MOUNTAIN  CLOUDY    35  29  78 N10       30.19R
MARINETTE        N/A    N/A N/A N/A MISG        N/A
$$

WIZ017-030-035>037-045-250400-
CENTRAL WISCONSIN

CITY           SKY/WX    TMP DP  RH WIND       PRES   REMARKS
MEDFORD        NOT AVBL
WAUSAU         CLOUDY    36  33  89 NE7       30.15R
MOSINEE        NOT AVBL
MARSHFIELD     LGT RAIN  37  33  85 NE9       30.13R
WISC RAPIDS    LGT RAIN  38  37  97 E8        30.16S
STEVENS POINT  NOT AVBL
WAUPACA        NOT AVBL
SHAWANO        NOT AVBL
CLINTONVILLE   NOT AVBL
WAUTOMA        RAIN      36  35  96 VRB3      30.17R FOG
$$

WIZ038-039-048-051-250400-
FOX VALLEY

CITY           SKY/WX    TMP DP  RH WIND       PRES   REMARKS
NWS GREEN BAY  LGT RAIN  36  36 100 NE18      30.14S FOG
APPLETON       LGT RAIN  36  36 100 NE15G22   30.12R
OSHKOSH        CLOUDY    36  34  92 NE13      30.14R
FOND DU LAC    CLOUDY    37  33  85 NE9       30.14R
$$

WIZ022-050-052-250400-
EAST CENTRAL WISCONSIN

CITY           SKY/WX    TMP DP  RH WIND       PRES   REMARKS
EPHRAIM        NOT AVBL
WASHINGTON ISL NOT AVBL
STURGEON BAY   LGT RAIN  35  33  92 N16       30.16S
MANITOWOC      NOT AVBL
SHEBOYGAN      CLOUDY    36  33  89 N14G23    30.13R
$$

LMZ563-521-522-541>543-250400-
LAKESHORE

STATION/POSITION TIME  TEMP    WIND        PRES    VSBY  WAVE
                       AIR SEA DIR/SP/G                  HT/PER
                 (UTC) (F)     (DEG/KT/KT) (MB)    (MI)  (FT/S)
SHEBOYGAN LKSHOR 0200   36      10/ 19/ 21 1019.9R
KEWAUNEE LKSHORE 0230   36      20/ 12/ 18 1019.9F
NORTHPORT PIER   0240   35     360/ 11/ 13 1022.4R
SISTER BAY LKSHO 0206   35      30/ 12/ 15   N/A
CHAMBERS ISLAND  0240   34      10/ 13/ 16 1021.7R
MENOMINEE LKSHOR 0230   35      10/ 13/ 14 1021.4R
$$




USA.gov is the U.S. government's official web portal to all federal, state and local government web resources and services.